Location: Betra
(48.4113°N, 8.6634°E)
Time: 17:28:56
(UTC+00:00)

Cosmos 1850 Rocket - Pass Details

Date: 23 May 2024
Orbit: 753 x 782 km, 74.0° (Epoch: 16 June)

Event Time Altitude Azimuth Distance (km) Brightness Sun altitude
Exits shadow 01:46:17 21° 215° (SW) 1,710 5.2 -13.8°
Maximum altitude 01:49:54 69° 295° (WNW) 829 4.1 -13.5°
Drops below altitude 10° 01:55:10 10° 19° (NNE) 2,321 7.8 -12.9°
Sets 01:57:33 0° 22° (NNE) 3,247 8.9 -12.7°
